This is the latest recevied weather packets stored in our database for station/object NU3S-7. If no packets are shown the sender has not sent any weather packets the latest 1 day(s).
| Time | Temp. | Humidity | Pressure | Rain* | Wind** | Luminosity | Snow |
|---|---|---|---|---|---|---|---|
| 1778050646 | 13.89° C | 100% | 1006.6 hPa | 2.03 mm | - | - | - |
| 1778049443 | 13.89° C | 99% | 1006.9 hPa | 1.78 mm | - | - | - |
| 1778048240 | 13.89° C | 99% | 1007 hPa | 1.27 mm | - | - | - |
| 1778047670 | 13.89° C | 99% | 1007.3 hPa | 1.27 mm | - | - | - |
| 1778047638 | 13.89° C | 99% | 1007.3 hPa | 1.27 mm | - | - | - |
| 1778046437 | 13.89° C | 97% | 1007.5 hPa | 1.02 mm | - | - | - |
| 1778045836 | 14.44° C | 97% | 1007.6 hPa | 0.76 mm | - | - | - |
| 1778045235 | 14.44° C | 96% | 1007.7 hPa | 0.76 mm | - | - | - |
| 1778044779 | 15° C | 95% | 1007.9 hPa | 0.76 mm | - | - | - |
| 1778044635 | 15° C | 95% | 1007.9 hPa | 0.76 mm | - | - | - |
| 1778044033 | 15.56° C | 93% | 1008.1 hPa | 0.51 mm | - | - | - |
| 1778043433 | 15.56° C | 90% | 1008.1 hPa | 0.25 mm | - | - | - |
| 1778042868 | 16.67° C | 86% | 1008.2 hPa | 0 mm | - | - | - |
| 1778041660 | 18.33° C | 76% | 1008.1 hPa | 0 mm | - | - | - |
| 1778041629 | 18.33° C | 76% | 1008.1 hPa | 0 mm | - | - | - |
| 1778040426 | 19.44° C | 69% | 1007.5 hPa | 0 mm | - | - | - |
| 1778039225 | 19.44° C | 70% | 1007.2 hPa | 0.51 mm | - | - | - |
| 1778036820 | 19.44° C | 70% | 1007.2 hPa | 0.51 mm | - | - | - |
| 1778035017 | 19.44° C | 69% | 1007.2 hPa | 0.51 mm | - | - | - |
| 1778034417 | 19.44° C | 69% | 1007.2 hPa | 0.51 mm | - | - | - |
| 1778033831 | 19.44° C | 68% | 1007.2 hPa | 0.51 mm | - | - | - |
| 1778032616 | 20° C | 67% | 1007.1 hPa | 0.51 mm | - | - | - |
* Rain since midnight (hover to see other rain measurements)
** Current wind speed in m/s (hover to see current wind gust speed)